{"data":{"norad_id":61048,"intl_designator":"2024-163D","name":"SPACEMOBILE-002","alt_names":[],"object_type":"PAYLOAD","status":"ACTIVE","operator":null,"country":"US","launch_date":"2024-09-12","launch_site_code":"AFETR","launch_vehicle":null,"mission":null,"orbit_class":"UNKNOWN","rcs_meters":null,"size_class":null,"mass_kg":null,"dimensions":null,"purposes":[],"wikipedia_slug":null,"has_3d_model":false,"image_url":null,"decayed_at":null,"tle_current":{"epoch":"2026-05-25T01:13:18.770016Z","epoch_age_seconds":60932,"freshness":"FRESH","line1":"1 61048U 24163D   26145.05091169  .00006616  00000+0  31115-3 0  9996","line2":"2 61048  52.9788  55.5318 0008921  55.8776 304.3063 15.20727766 94246","mean_motion":15.20727766,"eccentricity":0.0008921,"inclination_deg":52.9788,"raan_deg":55.5318,"arg_perigee_deg":55.8776,"mean_anomaly_deg":304.3063,"bstar":0.00031115,"rev_number":9424,"period_min":94.69150443591,"perigee_km":497.50491766438,"apogee_km":509.78339160047,"semimajor_km":6881.7811546324,"source":"CELESTRAK","updated_at":"2026-05-25T13:38:02.280253Z"}}}